Weather History for Memphis, TN

Change the Weather History Date:

Friday, September 20, 2013

  Actual Average Record
Temperature  
Mean Temperature 74 °F 74 °F  
Max Temperature 78 °F 84 °F 100 °F (2010)
Min Temperature 70 °F 64 °F 47 °F (1991)
Degree Days  
Heating Degree Days 0 0  
Month to date heating degree days 0 0  
Since 1 July heating degree days 0 0  
Cooling Degree Days 9 9  
Month to date cooling degree days 316 242  
Year to date cooling degree days 2042 2077  
Growing Degree Days 24 (Base 50)    
Moisture  
Dew Point 71 °F    
Average Humidity 81    
Maximum Humidity 97    
Minimum Humidity 64    
Precipitation  
Precipitation 1.87 in 0.10 in 3.32 in (2002)
Month to date precipitation 1.98 1.94  
Year to date precipitation 47.93 37.32  
Snow  
Snow 0.00 in 0.00 in 0.00 in (2002)
Month to date snowfall 0.0 0.0  
Since 1 July snowfall 0.0 0.0  
Since 1 September snowfall 0.0 0.0  
Snow Depth 0.00 in    
Sea Level Pressure  
Sea Level Pressure 29.90 in    
Wind  
Wind Speed 8 mph (ENE)    
Max Wind Speed 14 mph    
Max Gust Speed -    
Visibility 6 miles    
Events Rain    
T = Trace of Precipitation, MM = Missing Value Source: NWS Daily Summary

Daily Weather History Graph

Daily Weather History Graph

Search for Another Location

Airport:

Trip Planner

Search our weather history database for the weather conditions in past years. The results will help you decide how hot, cold, wet, or windy it might be!

Date:

Astronomy

Sep. 20, 2013 Rise Set
Actual Time 6:46 AM CDT 6:59 PM CDT
Civil Twilight 6:21 AM CDT 7:24 PM CDT
Nautical Twilight 5:51 AM CDT 7:54 PM CDT
Astronomical Twilight 5:21 AM CDT 8:23 PM CDT
Moon 7:38 PM CDT (9/20) 7:56 AM CDT (9/20)
Length of Visible Light 13h 03m
Length of Day
12h 12m
Full, 98% of the Moon is Illuminated
Sep 20
Full
Sep 26
Last Quarter
Oct 4
New
Oct 11
First Quarter
Oct 18
Full

Hourly Weather History & Observations

Time (CDT) Temp. Dew Point Humidity Pressure Visibility Wind Dir Wind Speed Gust Speed Precip Events Conditions
12:54 AM 77.7 °F 64.9 °F 65% 29.97 in 10.0 mi SSE 13.8 mph - N/A   Scattered Clouds
1:54 AM 76.6 °F 64.6 °F 66% 29.98 in 10.0 mi SE 5.8 mph - N/A   Scattered Clouds
2:54 AM 76.3 °F 65.3 °F 69% 29.96 in 10.0 mi SSE 13.8 mph - N/A   Mostly Cloudy
3:54 AM 75.6 °F 66.0 °F 72% 29.96 in 10.0 mi SSE 11.5 mph - N/A   Scattered Clouds
4:54 AM 74.7 °F 66.7 °F 76% 29.96 in 10.0 mi SSE 11.5 mph - N/A   Partly Cloudy
5:54 AM 73.9 °F 66.9 °F 79% 29.95 in 10.0 mi SE 6.9 mph - N/A   Mostly Cloudy
6:54 AM 73.2 °F 67.3 °F 82% 29.95 in 10.0 mi Calm Calm - N/A   Mostly Cloudy
7:54 AM 74.8 °F 68.2 °F 80% 29.95 in 10.0 mi SSE 9.2 mph - N/A   Mostly Cloudy
8:54 AM 75.7 °F 72.0 °F 88% 29.95 in 5.0 mi South 5.8 mph - N/A Rain Light Rain
9:54 AM 76.3 °F 72.5 °F 88% 29.95 in 6.0 mi SSE 5.8 mph - N/A Rain Light Rain
10:18 AM 77.0 °F 75.2 °F 94% 29.96 in 9.0 mi South 5.8 mph - N/A Rain Light Rain
10:38 AM 77.0 °F 75.2 °F 94% 29.95 in 6.0 mi SSW 3.5 mph - N/A Rain Light Rain
10:54 AM 75.4 °F 73.6 °F 94% 29.94 in 6.0 mi South 4.6 mph - N/A Rain Light Rain
11:06 AM 75.2 °F 73.4 °F 94% 29.94 in 3.0 mi South 4.6 mph - N/A Rain Light Rain
11:14 AM 75.2 °F 73.4 °F 94% 29.94 in 2.0 mi South 4.6 mph - N/A Rain Light Rain
11:21 AM 75.2 °F 75.2 °F 100% 29.93 in 4.0 mi SE 5.8 mph - N/A Rain Light Rain
11:34 AM 75.2 °F 73.4 °F 94% 29.93 in 5.0 mi Calm Calm - N/A Rain Light Rain
11:54 AM 76.5 °F 74.7 °F 94% 29.91 in 6.0 mi Calm Calm - N/A Rain Light Rain
12:27 PM 77.0 °F 75.2 °F 94% 29.91 in 2.0 mi ESE 5.8 mph - N/A Rain Rain
12:44 PM 77.0 °F 75.2 °F 94% 29.91 in 2.0 mi SE 5.8 mph - N/A Rain Rain
12:54 PM 77.0 °F 75.7 °F 96% 29.89 in 2.0 mi SE 5.8 mph - N/A Rain Rain
1:43 PM 75.2 °F 75.2 °F 100% 29.88 in 1.0 mi NW 10.4 mph - N/A Rain Rain
1:50 PM 75.2 °F 75.2 °F 100% 29.88 in 1.0 mi NW 10.4 mph - N/A Rain Rain
1:54 PM 75.7 °F 75.2 °F 98% 29.88 in 1.0 mi NW 10.4 mph - N/A Rain Rain
2:06 PM 75.2 °F 75.2 °F 100% 29.88 in 2.0 mi Calm Calm - N/A Rain Rain
2:49 PM 75.2 °F 71.6 °F 89% 29.87 in 2.0 mi NNW 5.8 mph - N/A Rain Rain
2:54 PM 75.0 °F 72.3 °F 91% 29.87 in 2.0 mi NNW 5.8 mph - N/A Rain Rain
3:23 PM 75.2 °F 73.4 °F 94% 29.86 in 2.0 mi NNW 5.8 mph - N/A Rain Rain
3:35 PM 75.2 °F 73.4 °F 94% 29.85 in 2.0 mi Calm Calm - N/A Rain Rain
3:54 PM 75.2 °F 72.7 °F 92% 29.85 in 3.0 mi NE 6.9 mph - N/A Rain Light Rain
4:54 PM 73.2 °F 69.8 °F 89% 29.84 in 10.0 mi NNE 4.6 mph - N/A   Overcast
5:54 PM 72.1 °F 71.2 °F 97% 29.84 in 6.0 mi North 10.4 mph - N/A Rain Light Rain
6:52 PM 71.6 °F 69.8 °F 94% 29.84 in 8.0 mi North 9.2 mph - N/A Rain Light Rain
6:54 PM 71.6 °F 70.5 °F 96% 29.85 in 7.0 mi North 9.2 mph - N/A Rain Light Rain
7:16 PM 71.6 °F 69.8 °F 94% 29.85 in 2.5 mi NNW 8.1 mph - N/A Rain Rain
7:26 PM 71.6 °F 69.8 °F 94% 29.85 in 6.0 mi NNW 8.1 mph - N/A Rain Rain
7:54 PM 70.7 °F 70.0 °F 98% 29.85 in 6.0 mi North 10.4 mph - N/A Rain Light Rain
8:32 PM 69.8 °F 69.8 °F 100% 29.86 in 8.0 mi North 8.1 mph - N/A Rain Light Rain
8:54 PM 70.3 °F 69.6 °F 98% 29.86 in 5.0 mi North 5.8 mph - N/A Rain Light Rain
9:54 PM 70.3 °F 69.6 °F 98% 29.83 in 9.0 mi NNE 9.2 mph - N/A   Overcast
10:54 PM 70.3 °F 67.3 °F 90% 29.83 in 10.0 mi NE 5.8 mph - N/A Rain Light Rain
11:34 PM 69.8 °F 68.0 °F 94% 29.84 in 10.0 mi North 4.6 mph - N/A Rain Light Rain
11:54 PM 70.3 °F 68.7 °F 95% 29.83 in 8.0 mi North 8.1 mph - N/A Rain Light Rain